Time,TemperatureF,DewpointF,PressureIn,WindDirection,WindDirectionDegrees,WindSpeedMPH,WindSpeedGustMPH,Humidity,HourlyPrecipIn,Conditions,Clouds,dailyrainin,SoftwareType,DateUTC
2013-07-19 00:01:00,81.0,71.1,29.85,SSW,203,6.9,12.1,72,0.00,,,0.00,WUHU216HW,2013-07-19 05:01:00,
2013-07-19 00:06:00,80.8,71.0,29.85,SSW,203,8.7,11.6,72,0.00,,,0.00,WUHU216HW,2013-07-19 05:06:00,
2013-07-19 00:11:00,80.6,70.8,29.84,SSW,203,7.4,11.6,72,0.00,,,0.00,WUHU216HW,2013-07-19 05:11:00,
2013-07-19 00:16:00,80.6,70.8,29.84,SSW,203,7.2,11.4,72,0.00,,,0.00,WUHU216HW,2013-07-19 05:16:00,
2013-07-19 00:21:00,80.5,70.7,29.84,SSE,158,6.5,11.4,72,0.00,,,0.00,WUHU216HW,2013-07-19 05:21:00,
2013-07-19 00:26:00,80.3,70.8,29.84,SSW,203,5.1,11.4,73,0.00,,,0.00,WUHU216HW,2013-07-19 05:26:00,
2013-07-19 00:31:00,80.3,70.8,29.84,SW,225,6.3,11.4,73,0.00,,,0.00,WUHU216HW,2013-07-19 05:31:00,
2013-07-19 00:36:00,80.1,70.7,29.84,SSW,203,6.5,9.8,73,0.00,,,0.00,WUHU216HW,2013-07-19 05:36:00,
2013-07-19 00:41:00,80.3,70.8,29.84,SSW,203,4.9,9.8,73,0.00,,,0.00,WUHU216HW,2013-07-19 05:41:00,
2013-07-19 00:46:00,80.3,70.8,29.84,West,270,7.6,9.8,73,0.00,,,0.00,WUHU216HW,2013-07-19 05:46:00,
2013-07-19 00:51:00,80.3,70.8,29.84,SW,225,8.3,9.6,73,0.00,,,0.00,WUHU216HW,2013-07-19 05:51:00,
2013-07-19 00:56:00,80.1,70.7,29.84,SSW,203,6.9,8.5,73,0.00,,,0.00,WUHU216HW,2013-07-19 05:56:00,
2013-07-19 01:01:00,79.9,70.5,29.83,South,180,5.6,10.1,73,0.00,,,0.00,WUHU216HW,2013-07-19 06:01:00,
2013-07-19 01:06:00,79.9,70.5,29.83,SW,225,8.1,10.1,73,0.00,,,0.00,WUHU216HW,2013-07-19 06:06:00,
2013-07-19 01:11:00,79.9,70.5,29.83,SW,225,5.4,9.6,73,0.00,,,0.00,WUHU216HW,2013-07-19 06:11:00,
2013-07-19 01:16:00,79.7,70.3,29.83,SSW,203,6.7,9.4,73,0.00,,,0.00,WUHU216HW,2013-07-19 06:16:00,
2013-07-19 01:21:00,79.6,70.1,29.83,SW,225,6.0,9.4,73,0.00,,,0.00,WUHU216HW,2013-07-19 06:21:00,
2013-07-19 01:26:00,79.6,70.1,29.83,SW,225,8.9,12.1,73,0.00,,,0.00,WUHU216HW,2013-07-19 06:26:00,
2013-07-19 01:31:00,79.6,70.1,29.83,WSW,248,9.2,12.1,73,0.00,,,0.00,WUHU216HW,2013-07-19 06:31:00,
2013-07-19 01:36:00,79.6,70.1,29.82,WSW,248,8.3,10.5,73,0.00,,,0.00,WUHU216HW,2013-07-19 06:36:00,
2013-07-19 01:41:00,79.6,70.1,29.83,WSW,248,5.6,11.2,73,0.00,,,0.00,WUHU216HW,2013-07-19 06:41:00,
2013-07-19 01:46:00,79.4,69.9,29.83,SW,225,7.4,11.2,73,0.00,,,0.00,WUHU216HW,2013-07-19 06:46:00,
2013-07-19 01:51:00,79.4,69.9,29.83,WSW,248,7.8,9.4,73,0.00,,,0.00,WUHU216HW,2013-07-19 06:51:00,
2013-07-19 01:56:00,79.6,70.1,29.82,SSW,203,9.8,12.1,73,0.00,,,0.00,WUHU216HW,2013-07-19 06:56:00,
2013-07-19 02:01:00,79.6,70.1,29.82,SW,225,8.3,12.8,73,0.00,,,0.00,WUHU216HW,2013-07-19 07:01:00,
2013-07-19 02:06:00,79.4,69.9,29.82,SSW,203,7.4,12.8,73,0.00,,,0.00,WUHU216HW,2013-07-19 07:06:00,
2013-07-19 02:11:00,79.4,69.9,29.82,WSW,248,8.1,12.3,73,0.00,,,0.00,WUHU216HW,2013-07-19 07:11:00,
2013-07-19 02:16:00,79.2,69.8,29.82,SW,225,10.3,12.3,73,0.00,,,0.00,WUHU216HW,2013-07-19 07:16:00,
2013-07-19 02:21:00,79.2,69.8,29.82,WSW,248,5.1,11.2,73,0.00,,,0.00,WUHU216HW,2013-07-19 07:21:00,
2013-07-19 02:26:00,79.0,69.6,29.82,SSW,203,6.0,11.2,73,0.00,,,0.00,WUHU216HW,2013-07-19 07:26:00,
2013-07-19 02:31:00,79.0,69.6,29.81,SW,225,6.3,11.0,73,0.00,,,0.00,WUHU216HW,2013-07-19 07:31:00,
2013-07-19 02:36:00,79.0,69.6,29.81,SW,225,10.5,15.4,73,0.00,,,0.00,WUHU216HW,2013-07-19 07:36:00,
2013-07-19 02:41:00,79.0,69.6,29.81,South,180,11.6,15.4,73,0.00,,,0.00,WUHU216HW,2013-07-19 07:41:00,
2013-07-19 02:46:00,78.8,69.4,29.81,SW,225,5.4,11.6,73,0.00,,,0.00,WUHU216HW,2013-07-19 07:46:00,
2013-07-19 02:51:00,78.8,69.0,29.81,SW,225,8.3,11.9,72,0.00,,,0.00,WUHU216HW,2013-07-19 07:51:00,
2013-07-19 02:56:00,78.8,69.0,29.80,WSW,248,7.6,14.8,72,0.00,,,0.00,WUHU216HW,2013-07-19 07:56:00,
2013-07-19 03:01:00,79.0,69.2,29.80,SW,225,7.6,14.8,72,0.00,,,0.00,WUHU216HW,2013-07-19 08:01:00,
2013-07-19 03:06:00,79.0,69.2,29.80,WSW,248,10.3,13.4,72,0.00,,,0.00,WUHU216HW,2013-07-19 08:06:00,
2013-07-19 03:11:00,79.0,69.2,29.80,West,270,8.7,13.4,72,0.00,,,0.00,WUHU216HW,2013-07-19 08:11:00,
2013-07-19 03:16:00,79.0,69.2,29.80,WSW,248,5.4,11.0,72,0.00,,,0.00,WUHU216HW,2013-07-19 08:16:00,
2013-07-19 03:21:00,78.8,69.0,29.79,SW,225,6.3,9.8,72,0.00,,,0.00,WUHU216HW,2013-07-19 08:21:00,
2013-07-19 03:25:00,78.7,69.2,29.79,SW,225,8.9,11.4,73,0.00,,,0.00,WUHU216HW,2013-07-19 08:25:00,
2013-07-19 03:30:00,78.5,69.0,29.79,SW,225,5.8,11.4,73,0.00,,,0.00,WUHU216HW,2013-07-19 08:30:00,
2013-07-19 03:35:00,78.3,69.0,29.79,WSW,248,4.0,9.4,73,0.00,,,0.00,WUHU216HW,2013-07-19 08:35:00,
2013-07-19 03:40:00,78.1,68.8,29.79,SW,225,9.2,9.4,73,0.00,,,0.00,WUHU216HW,2013-07-19 08:40:00,
2013-07-19 03:45:00,78.1,68.8,29.78,SW,225,5.8,11.2,73,0.00,,,0.00,WUHU216HW,2013-07-19 08:45:00,
2013-07-19 03:50:00,78.1,68.8,29.78,SW,225,8.9,11.6,73,0.00,,,0.00,WUHU216HW,2013-07-19 08:50:00,
2013-07-19 03:55:00,78.1,68.8,29.78,SSW,203,8.5,11.6,73,0.00,,,0.00,WUHU216HW,2013-07-19 08:55:00,
2013-07-19 04:00:00,78.1,68.3,29.78,SW,225,7.6,14.3,72,0.00,,,0.00,WUHU216HW,2013-07-19 09:00:00,
2013-07-19 04:05:00,78.1,68.3,29.78,SW,225,5.6,14.3,72,0.00,,,0.00,WUHU216HW,2013-07-19 09:05:00,
2013-07-19 04:10:00,78.1,68.8,29.78,SSW,203,6.5,13.2,73,0.00,,,0.00,WUHU216HW,2013-07-19 09:10:00,
2013-07-19 04:15:00,78.1,68.3,29.78,SW,225,7.6,10.5,72,0.00,,,0.00,WUHU216HW,2013-07-19 09:15:00,
2013-07-19 04:20:00,78.1,68.3,29.77,SW,225,6.3,10.5,72,0.00,,,0.00,WUHU216HW,2013-07-19 09:20:00,
2013-07-19 04:25:00,78.1,68.3,29.77,WSW,248,9.6,10.5,72,0.00,,,0.00,WUHU216HW,2013-07-19 09:25:00,
2013-07-19 04:30:00,78.1,68.3,29.77,SSW,203,7.2,10.5,72,0.00,,,0.00,WUHU216HW,2013-07-19 09:30:00,
2013-07-19 04:35:00,78.1,68.3,29.77,SSW,203,7.4,11.4,72,0.00,,,0.00,WUHU216HW,2013-07-19 09:35:00,
2013-07-19 04:40:00,78.1,68.0,29.77,WSW,248,11.6,12.8,71,0.00,,,0.00,WUHU216HW,2013-07-19 09:40:00,
2013-07-19 04:45:00,78.3,68.1,29.77,SW,225,7.6,13.4,71,0.00,,,0.00,WUHU216HW,2013-07-19 09:45:00,
2013-07-19 04:50:00,78.5,67.9,29.77,WSW,248,14.1,15.0,70,0.00,,,0.00,WUHU216HW,2013-07-19 09:50:00,
2013-07-19 04:55:00,78.7,68.0,29.77,WSW,248,10.5,15.0,70,0.00,,,0.00,WUHU216HW,2013-07-19 09:55:00,
2013-07-19 05:00:00,78.7,68.0,29.77,SSW,203,9.8,14.1,70,0.00,,,0.00,WUHU216HW,2013-07-19 10:00:00,
2013-07-19 05:05:00,78.8,68.2,29.77,SSW,203,6.7,17.4,70,0.00,,,0.00,WUHU216HW,2013-07-19 10:05:00,
2013-07-19 05:10:00,78.8,67.8,29.77,SW,225,10.5,17.4,69,0.00,,,0.00,WUHU216HW,2013-07-19 10:10:00,
2013-07-19 05:15:00,78.7,68.0,29.77,SW,225,13.9,14.8,70,0.00,,,0.00,WUHU216HW,2013-07-19 10:15:00,
2013-07-19 05:20:00,78.5,67.9,29.77,SW,225,12.3,15.7,70,0.00,,,0.00,WUHU216HW,2013-07-19 10:20:00,
2013-07-19 05:25:00,78.5,67.9,29.77,SSW,203,11.4,15.7,70,0.00,,,0.00,WUHU216HW,2013-07-19 10:25:00,
2013-07-19 05:30:00,78.3,67.8,29.77,SW,225,11.4,12.8,70,0.00,,,0.00,WUHU216HW,2013-07-19 10:30:00,
2013-07-19 05:35:00,78.3,67.8,29.77,WSW,248,11.9,15.4,70,0.00,,,0.00,WUHU216HW,2013-07-19 10:35:00,
2013-07-19 05:40:00,78.3,67.8,29.77,SW,225,12.1,15.4,70,0.00,,,0.00,WUHU216HW,2013-07-19 10:40:00,
2013-07-19 05:45:00,78.3,67.8,29.77,SW,225,10.1,15.2,70,0.00,,,0.00,WUHU216HW,2013-07-19 10:45:00,
2013-07-19 05:50:00,78.5,67.9,29.77,SW,225,12.8,17.9,70,0.00,,,0.00,WUHU216HW,2013-07-19 10:50:00,
2013-07-19 05:55:00,78.5,67.9,29.77,SSW,203,11.9,17.9,70,0.00,,,0.00,WUHU216HW,2013-07-19 10:55:00,
2013-07-19 06:00:00,78.5,67.9,29.77,SW,225,12.1,17.0,70,0.00,,,0.00,WUHU216HW,2013-07-19 11:00:00,
2013-07-19 06:05:00,78.5,67.9,29.77,SSW,203,7.2,17.0,70,0.00,,,0.00,WUHU216HW,2013-07-19 11:05:00,
2013-07-19 06:10:00,78.8,67.8,29.77,SW,225,8.7,13.4,69,0.00,,,0.00,WUHU216HW,2013-07-19 11:10:00,
2013-07-19 06:15:00,79.7,68.2,29.77,SW,225,9.8,13.4,68,0.00,,,0.00,WUHU216HW,2013-07-19 11:15:00,
2013-07-19 06:20:00,80.3,68.3,29.77,SW,225,12.3,12.8,67,0.00,,,0.00,WUHU216HW,2013-07-19 11:20:00,
2013-07-19 06:25:00,80.6,68.2,29.77,WSW,248,8.1,12.3,66,0.00,,,0.00,WUHU216HW,2013-07-19 11:25:00,
2013-07-19 06:30:00,81.0,68.6,29.77,SW,225,8.7,12.5,66,0.00,,,0.00,WUHU216HW,2013-07-19 11:30:00,
2013-07-19 06:35:00,81.4,68.0,29.76,WSW,248,16.1,17.0,64,0.00,,,0.00,WUHU216HW,2013-07-19 11:35:00,
2013-07-19 06:40:00,81.7,68.3,29.77,SW,225,11.4,17.0,64,0.00,,,0.00,WUHU216HW,2013-07-19 11:40:00,
2013-07-19 06:45:00,82.1,68.6,29.77,WSW,248,7.6,16.1,64,0.00,,,0.00,WUHU216HW,2013-07-19 11:45:00,
2013-07-19 06:50:00,83.0,68.6,29.77,SW,225,11.4,13.0,62,0.00,,,0.00,WUHU216HW,2013-07-19 11:50:00,
2013-07-19 06:55:00,83.0,69.0,29.77,WSW,248,9.2,20.8,63,0.00,,,0.00,WUHU216HW,2013-07-19 11:55:00,
2013-07-19 07:00:00,83.7,68.9,29.77,SW,225,8.9,20.8,61,0.00,,,0.00,WUHU216HW,2013-07-19 12:00:00,
2013-07-19 07:05:00,84.4,69.1,29.77,SW,225,9.8,16.1,60,0.00,,,0.00,WUHU216HW,2013-07-19 12:05:00,
2013-07-19 07:10:00,84.8,69.4,29.77,WSW,248,12.3,15.2,60,0.00,,,0.00,WUHU216HW,2013-07-19 12:10:00,
2013-07-19 07:15:00,84.4,69.1,29.78,WSW,248,12.1,19.7,60,0.00,,,0.00,WUHU216HW,2013-07-19 12:15:00,
2013-07-19 07:20:00,83.2,68.8,29.78,WSW,248,11.0,19.7,62,0.00,,,0.00,WUHU216HW,2013-07-19 12:20:00,
2013-07-19 07:25:00,81.7,68.3,29.78,WSW,248,12.1,17.9,64,0.00,,,0.00,WUHU216HW,2013-07-19 12:25:00,
2013-07-19 07:30:00,81.0,68.1,29.78,SW,225,8.5,16.3,65,0.00,,,0.00,WUHU216HW,2013-07-19 12:30:00,
2013-07-19 07:35:00,80.8,68.0,29.79,SW,225,12.8,14.8,65,0.00,,,0.00,WUHU216HW,2013-07-19 12:35:00,
2013-07-19 07:40:00,81.0,68.6,29.78,SW,225,7.2,14.8,66,0.00,,,0.00,WUHU216HW,2013-07-19 12:40:00,
2013-07-19 07:45:00,81.4,68.4,29.78,WSW,248,13.0,14.3,65,0.00,,,0.00,WUHU216HW,2013-07-19 12:45:00,
2013-07-19 07:50:00,81.7,68.3,29.78,WSW,248,9.2,16.3,64,0.00,,,0.00,WUHU216HW,2013-07-19 12:50:00,
2013-07-19 07:55:00,82.3,68.3,29.78,SW,225,13.9,16.3,63,0.00,,,0.00,WUHU216HW,2013-07-19 12:55:00,
2013-07-19 08:00:00,82.6,68.2,29.79,SW,225,14.5,16.8,62,0.00,,,0.00,WUHU216HW,2013-07-19 13:00:00,
2013-07-19 08:05:00,83.2,69.2,29.79,WSW,248,14.3,16.8,63,0.00,,,0.00,WUHU216HW,2013-07-19 13:05:00,
2013-07-19 08:10:00,83.3,68.9,29.78,WSW,248,15.7,21.3,62,0.00,,,0.00,WUHU216HW,2013-07-19 13:10:00,
2013-07-19 08:15:00,83.2,68.8,29.78,WSW,248,15.0,21.3,62,0.00,,,0.00,WUHU216HW,2013-07-19 13:15:00,
2013-07-19 08:20:00,83.2,69.2,29.78,SW,225,15.7,18.8,63,0.00,,,0.00,WUHU216HW,2013-07-19 13:20:00,
2013-07-19 08:25:00,83.0,69.0,29.78,WSW,248,16.3,18.6,63,0.00,,,0.00,WUHU216HW,2013-07-19 13:25:00,
2013-07-19 08:26:00,83.2,69.7,29.78,SW,225,14.3,18.6,64,0.00,,,0.00,WUHU216HW,2013-07-19 13:26:00,
2013-07-19 08:31:00,83.5,69.6,29.78,SW,225,15.9,19.0,63,0.00,,,0.00,WUHU216HW,2013-07-19 13:31:00,
2013-07-19 08:36:00,83.9,69.5,29.78,SW,225,18.1,20.8,62,0.00,,,0.00,WUHU216HW,2013-07-19 13:36:00,
2013-07-19 08:41:00,84.1,69.7,29.77,SSW,203,9.8,20.8,62,0.00,,,0.00,WUHU216HW,2013-07-19 13:41:00,
2013-07-19 08:46:00,84.6,69.3,29.78,WSW,248,13.2,18.1,60,0.00,,,0.00,WUHU216HW,2013-07-19 13:46:00,
2013-07-19 08:51:00,85.3,69.9,29.78,WSW,248,16.3,16.3,60,0.00,,,0.00,WUHU216HW,2013-07-19 13:51:00,
2013-07-19 08:56:00,85.9,69.8,29.77,SW,225,14.3,16.3,59,0.00,,,0.00,WUHU216HW,2013-07-19 13:56:00,
2013-07-19 09:01:00,85.1,70.2,29.77,SSW,203,16.3,16.6,61,0.00,,,0.00,WUHU216HW,2013-07-19 14:01:00,
2013-07-19 09:06:00,84.2,69.4,29.77,SW,225,13.9,18.8,61,0.00,,,0.00,WUHU216HW,2013-07-19 14:06:00,
2013-07-19 09:11:00,83.5,69.1,29.77,SW,225,10.1,18.8,62,0.00,,,0.00,WUHU216HW,2013-07-19 14:11:00,
2013-07-19 09:16:00,83.3,69.8,29.77,SW,225,11.0,17.9,64,0.00,,,0.00,WUHU216HW,2013-07-19 14:16:00,
2013-07-19 09:21:00,83.3,69.8,29.77,WSW,248,11.4,17.9,64,0.00,,,0.00,WUHU216HW,2013-07-19 14:21:00,
2013-07-19 09:26:00,83.2,69.7,29.77,SW,225,14.5,19.7,64,0.00,,,0.00,WUHU216HW,2013-07-19 14:26:00,
2013-07-19 09:30:00,83.2,70.1,29.77,SW,225,9.8,20.6,65,0.00,,,0.00,WUHU216HW,2013-07-19 14:30:00,
2013-07-19 09:36:00,83.3,70.3,29.77,WSW,248,9.2,20.6,65,0.00,,,0.00,WUHU216HW,2013-07-19 14:36:00,
2013-07-19 09:41:00,83.7,70.7,29.77,WSW,248,13.4,15.0,65,0.00,,,0.00,WUHU216HW,2013-07-19 14:41:00,
2013-07-19 09:46:00,84.4,70.9,29.77,SW,225,8.3,14.5,64,0.00,,,0.00,WUHU216HW,2013-07-19 14:46:00,
2013-07-19 09:51:00,85.1,71.1,29.77,WSW,248,15.0,17.4,63,0.00,,,0.00,WUHU216HW,2013-07-19 14:51:00,
2013-07-19 09:56:00,86.0,71.5,29.77,WSW,248,7.2,17.4,62,0.00,,,0.00,WUHU216HW,2013-07-19 14:56:00,
2013-07-19 10:00:00,86.2,70.7,29.77,West,270,10.5,16.1,60,0.00,,,0.00,WUHU216HW,2013-07-19 15:00:00,
2013-07-19 10:05:00,86.8,71.3,29.76,West,270,8.9,15.0,60,0.00,,,0.00,WUHU216HW,2013-07-19 15:05:00,
2013-07-19 10:10:00,87.1,71.6,29.76,West,270,9.2,13.6,60,0.00,,,0.00,WUHU216HW,2013-07-19 15:10:00,
2013-07-19 10:15:00,87.3,71.3,29.77,SW,225,11.0,15.7,59,0.00,,,0.00,WUHU216HW,2013-07-19 15:15:00,
2013-07-19 10:20:00,86.8,71.3,29.76,WSW,248,8.7,15.7,60,0.00,,,0.00,WUHU216HW,2013-07-19 15:20:00,
2013-07-19 10:25:00,86.6,71.1,29.76,SSW,203,4.9,15.2,60,0.00,,,0.00,WUHU216HW,2013-07-19 15:25:00,
2013-07-19 10:30:00,86.8,71.3,29.77,SW,225,8.7,12.1,60,0.00,,,0.00,WUHU216HW,2013-07-19 15:30:00,
2013-07-19 10:35:00,87.5,72.0,29.76,WSW,248,9.2,13.2,60,0.00,,,0.00,WUHU216HW,2013-07-19 15:35:00,
2013-07-19 10:40:00,88.0,71.5,29.76,SW,225,10.5,15.2,58,0.00,,,0.00,WUHU216HW,2013-07-19 15:40:00,
2013-07-19 10:45:00,88.0,72.0,29.76,SW,225,11.2,15.2,59,0.00,,,0.00,WUHU216HW,2013-07-19 15:45:00,
2013-07-19 10:50:00,87.7,71.6,29.76,WSW,248,6.5,12.3,59,0.00,,,0.00,WUHU216HW,2013-07-19 15:50:00,
2013-07-19 10:55:00,88.0,71.5,29.76,WSW,248,9.8,11.4,58,0.00,,,0.00,WUHU216HW,2013-07-19 15:55:00,
2013-07-19 11:00:00,88.2,71.7,29.75,WSW,248,12.8,15.7,58,0.00,,,0.00,WUHU216HW,2013-07-19 16:00:00,
2013-07-19 11:05:00,88.7,71.0,29.75,WSW,248,13.0,15.7,56,0.00,,,0.00,WUHU216HW,2013-07-19 16:05:00,
2013-07-19 11:10:00,88.9,71.7,29.75,WSW,248,8.7,15.7,57,0.00,,,0.00,WUHU216HW,2013-07-19 16:10:00,
2013-07-19 11:15:00,88.9,72.3,29.75,West,270,11.4,14.5,58,0.00,,,0.00,WUHU216HW,2013-07-19 16:15:00,
2013-07-19 11:20:00,89.5,71.6,29.75,SW,225,14.8,16.6,56,0.00,,,0.00,WUHU216HW,2013-07-19 16:20:00,
2013-07-19 11:25:00,89.1,71.9,29.75,SW,225,10.7,16.6,57,0.00,,,0.00,WUHU216HW,2013-07-19 16:25:00,
2013-07-19 11:30:00,88.4,71.2,29.75,SSW,203,9.8,14.8,57,0.00,,,0.00,WUHU216HW,2013-07-19 16:30:00,
2013-07-19 11:35:00,88.0,72.0,29.75,WSW,248,15.0,15.0,59,0.00,,,0.00,WUHU216HW,2013-07-19 16:35:00,
2013-07-19 11:40:00,88.2,72.2,29.75,SW,225,11.9,15.7,59,0.00,,,0.00,WUHU216HW,2013-07-19 16:40:00,
2013-07-19 11:45:00,88.4,71.7,29.75,WSW,248,10.3,18.6,58,0.00,,,0.00,WUHU216HW,2013-07-19 16:45:00,
2013-07-19 11:50:00,88.6,71.4,29.75,SW,225,14.3,18.6,57,0.00,,,0.00,WUHU216HW,2013-07-19 16:50:00,
2013-07-19 11:55:00,88.6,71.9,29.75,WSW,248,13.0,16.8,58,0.00,,,0.00,WUHU216HW,2013-07-19 16:55:00,
2013-07-19 12:00:00,88.7,71.6,29.75,SW,225,12.5,17.9,57,0.00,,,0.00,WUHU216HW,2013-07-19 17:00:00,
2013-07-19 12:05:00,88.6,71.9,29.75,SW,225,11.6,17.9,58,0.00,,,0.00,WUHU216HW,2013-07-19 17:05:00,
2013-07-19 12:10:00,87.8,71.3,29.75,SW,225,11.2,16.3,58,0.00,,,0.00,WUHU216HW,2013-07-19 17:10:00,
2013-07-19 12:15:00,87.5,70.9,29.75,SW,225,13.0,15.4,58,0.00,,,0.00,WUHU216HW,2013-07-19 17:15:00,
2013-07-19 12:20:00,87.7,71.6,29.75,SSW,203,11.4,15.0,59,0.00,,,0.00,WUHU216HW,2013-07-19 17:20:00,
2013-07-19 12:25:00,88.2,71.1,29.75,SW,225,10.1,14.5,57,0.00,,,0.00,WUHU216HW,2013-07-19 17:25:00,
2013-07-19 12:30:00,88.6,71.4,29.75,SW,225,10.7,16.3,57,0.00,,,0.00,WUHU216HW,2013-07-19 17:30:00,
2013-07-19 12:35:00,89.3,71.5,29.75,WSW,248,14.8,16.3,56,0.00,,,0.00,WUHU216HW,2013-07-19 17:35:00,
2013-07-19 12:40:00,89.1,71.4,29.74,WSW,248,14.3,16.1,56,0.00,,,0.00,WUHU216HW,2013-07-19 17:40:00,
2013-07-19 12:45:00,89.1,71.4,29.74,WSW,248,11.4,18.1,56,0.00,,,0.00,WUHU216HW,2013-07-19 17:45:00,
2013-07-19 12:50:00,89.6,72.4,29.74,SW,225,13.4,18.1,57,0.00,,,0.00,WUHU216HW,2013-07-19 17:50:00,
2013-07-19 12:55:00,89.8,72.0,29.74,WSW,248,11.6,14.8,56,0.00,,,0.00,WUHU216HW,2013-07-19 17:55:00,
2013-07-19 13:00:00,88.9,70.7,29.74,WSW,248,17.0,17.0,55,0.00,,,0.00,WUHU216HW,2013-07-19 18:00:00,
2013-07-19 13:05:00,88.7,71.0,29.74,West,270,12.8,17.0,56,0.00,,,0.00,WUHU216HW,2013-07-19 18:05:00,
2013-07-19 13:10:00,88.4,71.7,29.74,West,270,15.0,17.0,58,0.00,,,0.00,WUHU216HW,2013-07-19 18:10:00,
2013-07-19 13:15:00,88.9,72.3,29.73,West,270,10.5,15.0,58,0.00,,,0.00,WUHU216HW,2013-07-19 18:15:00,
2013-07-19 13:20:00,89.6,71.8,29.74,SSW,203,10.5,15.0,56,0.00,,,0.00,WUHU216HW,2013-07-19 18:20:00,
2013-07-19 13:25:00,90.0,71.7,29.73,SW,225,19.2,19.2,55,0.00,,,0.00,WUHU216HW,2013-07-19 18:25:00,
2013-07-19 13:30:00,90.2,71.7,29.73,WSW,248,10.5,19.2,55,0.00,,,0.00,WUHU216HW,2013-07-19 18:30:00,
2013-07-19 13:35:00,90.7,71.7,29.73,SW,225,12.1,19.2,54,0.00,,,0.00,WUHU216HW,2013-07-19 18:35:00,
2013-07-19 13:40:00,90.7,72.3,29.73,WSW,248,11.4,17.7,55,0.00,,,0.00,WUHU216HW,2013-07-19 18:40:00,
2013-07-19 13:45:00,90.9,72.5,29.73,SW,225,8.5,17.7,55,0.00,,,0.00,WUHU216HW,2013-07-19 18:45:00,
2013-07-19 13:50:00,91.3,73.3,29.73,SSW,203,7.8,16.6,56,0.00,,,0.00,WUHU216HW,2013-07-19 18:50:00,
2013-07-19 13:55:00,91.1,72.0,29.73,WSW,248,13.0,17.9,54,0.00,,,0.00,WUHU216HW,2013-07-19 18:55:00,
2013-07-19 14:00:00,90.5,69.9,29.73,WSW,248,19.7,20.1,51,0.00,,,0.00,WUHU216HW,2013-07-19 19:00:00,
2013-07-19 14:05:00,90.5,71.0,29.73,WSW,248,12.8,20.1,53,0.00,,,0.00,WUHU216HW,2013-07-19 19:05:00,
2013-07-19 14:10:00,90.7,71.7,29.72,WSW,248,11.4,19.7,54,0.00,,,0.00,WUHU216HW,2013-07-19 19:10:00,
2013-07-19 14:15:00,90.7,71.2,29.72,SSW,203,12.3,17.2,53,0.00,,,0.00,WUHU216HW,2013-07-19 19:15:00,
2013-07-19 14:20:00,90.9,70.8,29.73,WSW,248,12.1,20.1,52,0.00,,,0.00,WUHU216HW,2013-07-19 19:20:00,
2013-07-19 14:25:00,90.7,71.7,29.72,WSW,248,16.3,20.1,54,0.00,,,0.00,WUHU216HW,2013-07-19 19:25:00,
2013-07-19 14:30:00,91.3,71.1,29.73,WSW,248,15.7,20.1,52,0.00,,,0.00,WUHU216HW,2013-07-19 19:30:00,
2013-07-19 14:35:00,91.3,71.1,29.73,SW,225,12.8,20.1,52,0.00,,,0.00,WUHU216HW,2013-07-19 19:35:00,
2013-07-19 14:40:00,91.6,71.5,29.73,WSW,248,13.6,18.6,52,0.00,,,0.00,WUHU216HW,2013-07-19 19:40:00,
2013-07-19 14:45:00,91.6,71.5,29.72,SSW,203,16.3,17.0,52,0.00,,,0.00,WUHU216HW,2013-07-19 19:45:00,
2013-07-19 14:50:00,91.4,71.8,29.72,WSW,248,16.1,17.4,53,0.00,,,0.00,WUHU216HW,2013-07-19 19:50:00,
2013-07-19 14:55:00,91.4,71.8,29.72,WSW,248,11.2,17.4,53,0.00,,,0.00,WUHU216HW,2013-07-19 19:55:00,
2013-07-19 15:00:00,91.8,72.2,29.72,WSW,248,9.4,21.9,53,0.00,,,0.00,WUHU216HW,2013-07-19 20:00:00,
2013-07-19 15:05:00,92.3,72.1,29.72,WSW,248,13.2,21.9,52,0.00,,,0.00,WUHU216HW,2013-07-19 20:05:00,
2013-07-19 15:10:00,92.5,72.3,29.72,West,270,10.5,22.6,52,0.00,,,0.00,WUHU216HW,2013-07-19 20:10:00,
2013-07-19 15:15:00,92.3,71.0,29.72,WNW,293,23.0,24.2,50,0.00,,,0.00,WUHU216HW,2013-07-19 20:15:00,
2013-07-19 15:20:00,92.5,72.3,29.72,West,270,25.1,25.7,52,0.00,,,0.00,WUHU216HW,2013-07-19 20:20:00,
2013-07-19 15:25:00,93.2,72.4,29.72,WSW,248,6.3,25.7,51,0.00,,,0.00,WUHU216HW,2013-07-19 20:25:00,
2013-07-19 15:30:00,92.7,72.5,29.72,WSW,248,13.2,25.1,52,0.00,,,0.00,WUHU216HW,2013-07-19 20:30:00,
2013-07-19 15:35:00,92.2,71.9,29.72,WSW,248,14.1,30.2,52,0.00,,,0.00,WUHU216HW,2013-07-19 20:35:00,
2013-07-19 15:40:00,91.6,72.0,29.71,WSW,248,15.0,30.2,53,0.00,,,0.00,WUHU216HW,2013-07-19 20:40:00,
2013-07-19 15:45:00,92.0,72.4,29.71,WSW,248,20.4,24.4,53,0.00,,,0.00,WUHU216HW,2013-07-19 20:45:00,
2013-07-19 15:50:00,92.5,72.3,29.71,WSW,248,21.3,26.2,52,0.00,,,0.00,WUHU216HW,2013-07-19 20:50:00,
2013-07-19 15:55:00,92.0,71.8,29.71,SW,225,8.3,27.5,52,0.00,,,0.00,WUHU216HW,2013-07-19 20:55:00,
2013-07-19 16:00:00,91.8,71.1,29.71,WSW,248,9.8,27.5,51,0.00,,,0.00,WUHU216HW,2013-07-19 21:00:00,
2013-07-19 16:05:00,92.5,71.7,29.71,West,270,12.1,16.1,51,0.00,,,0.00,WUHU216HW,2013-07-19 21:05:00,
2013-07-19 16:10:00,92.9,70.2,29.71,WSW,248,11.0,19.9,48,0.00,,,0.00,WUHU216HW,2013-07-19 21:10:00,
2013-07-19 16:15:00,92.9,70.2,29.71,WSW,248,15.2,19.9,48,0.00,,,0.00,WUHU216HW,2013-07-19 21:15:00,
2013-07-19 16:20:00,92.9,69.6,29.71,WSW,248,11.6,18.6,47,0.00,,,0.00,WUHU216HW,2013-07-19 21:20:00,
2013-07-19 16:25:00,93.1,69.8,29.71,SW,225,22.1,33.1,47,0.00,,,0.00,WUHU216HW,2013-07-19 21:25:00,
2013-07-19 16:30:00,93.6,70.2,29.71,WNW,293,15.4,33.1,47,0.00,,,0.00,WUHU216HW,2013-07-19 21:30:00,
2013-07-19 16:35:00,93.6,70.9,29.71,WSW,248,14.3,24.2,48,0.00,,,0.00,WUHU216HW,2013-07-19 21:35:00,
2013-07-19 16:40:00,92.9,70.8,29.71,WSW,248,13.6,23.9,49,0.00,,,0.00,WUHU216HW,2013-07-19 21:40:00,
2013-07-19 16:45:00,92.9,69.6,29.71,SW,225,15.9,17.4,47,0.00,,,0.00,WUHU216HW,2013-07-19 21:45:00,
2013-07-19 16:50:00,93.2,69.2,29.71,WSW,248,10.5,17.4,46,0.00,,,0.00,WUHU216HW,2013-07-19 21:50:00,
2013-07-19 16:55:00,92.9,69.6,29.71,SW,225,4.5,15.9,47,0.00,,,0.00,WUHU216HW,2013-07-19 21:55:00,
2013-07-19 17:00:00,92.2,70.2,29.71,West,270,6.3,15.0,49,0.00,,,0.00,WUHU216HW,2013-07-19 22:00:00,
2013-07-19 17:05:00,92.5,70.6,29.71,WSW,248,9.4,13.2,49,0.00,,,0.00,WUHU216HW,2013-07-19 22:05:00,
2013-07-19 17:10:00,92.7,70.7,29.71,SW,225,7.4,14.5,49,0.00,,,0.00,WUHU216HW,2013-07-19 22:10:00,
2013-07-19 17:15:00,92.9,70.2,29.71,SW,225,12.1,14.5,48,0.00,,,0.00,WUHU216HW,2013-07-19 22:15:00,
2013-07-19 17:20:00,92.9,69.6,29.70,WSW,248,11.2,17.4,47,0.00,,,0.00,WUHU216HW,2013-07-19 22:20:00,
2013-07-19 17:25:00,92.7,69.4,29.70,WSW,248,14.8,17.4,47,0.00,,,0.00,WUHU216HW,2013-07-19 22:25:00,
2013-07-19 17:30:00,92.7,69.4,29.70,WSW,248,15.0,15.9,47,0.00,,,0.00,WUHU216HW,2013-07-19 22:30:00,
2013-07-19 17:35:00,92.5,69.8,29.70,WSW,248,10.3,15.9,48,0.00,,,0.00,WUHU216HW,2013-07-19 22:35:00,
2013-07-19 17:40:00,92.0,70.0,29.70,SW,225,11.9,15.7,49,0.00,,,0.00,WUHU216HW,2013-07-19 22:40:00,
2013-07-19 17:45:00,91.6,69.8,29.70,SW,225,11.2,14.1,49,0.00,,,0.00,WUHU216HW,2013-07-19 22:45:00,
2013-07-19 17:50:00,91.6,69.8,29.70,West,270,12.3,14.1,49,0.00,,,0.00,WUHU216HW,2013-07-19 22:50:00,
2013-07-19 17:55:00,91.4,69.6,29.70,WSW,248,9.6,14.8,49,0.00,,,0.00,WUHU216HW,2013-07-19 22:55:00,
2013-07-19 18:00:00,90.7,69.6,29.70,West,270,8.9,16.3,50,0.00,,,0.00,WUHU216HW,2013-07-19 23:00:00,
2013-07-19 18:05:00,90.4,69.8,29.70,West,270,10.7,16.3,51,0.00,,,0.00,WUHU216HW,2013-07-19 23:05:00,
2013-07-19 18:10:00,90.2,70.1,29.70,WSW,248,6.5,14.1,52,0.00,,,0.00,WUHU216HW,2013-07-19 23:10:00,
2013-07-19 18:15:00,89.8,69.9,29.70,West,270,5.8,14.3,52,0.00,,,0.00,WUHU216HW,2013-07-19 23:15:00,
2013-07-19 18:20:00,90.2,70.1,29.70,WSW,248,10.5,14.3,52,0.00,,,0.00,WUHU216HW,2013-07-19 23:20:00,
2013-07-19 18:25:00,90.7,71.2,29.70,WNW,293,7.8,12.8,53,0.00,,,0.00,WUHU216HW,2013-07-19 23:25:00,
2013-07-19 18:30:00,90.7,71.2,29.70,SW,225,6.9,10.3,53,0.00,,,0.00,WUHU216HW,2013-07-19 23:30:00,
2013-07-19 18:35:00,91.3,71.6,29.70,WSW,248,8.5,10.3,53,0.00,,,0.00,WUHU216HW,2013-07-19 23:35:00,
2013-07-19 18:40:00,91.8,72.2,29.70,WSW,248,5.8,9.2,53,0.00,,,0.00,WUHU216HW,2013-07-19 23:40:00,
2013-07-19 18:45:00,93.8,72.9,29.70,WNW,293,6.5,9.2,51,0.00,,,0.00,WUHU216HW,2013-07-19 23:45:00,
2013-07-19 18:50:00,95.0,73.0,29.70,NNW,338,2.9,7.8,49,0.00,,,0.00,WUHU216HW,2013-07-19 23:50:00,
2013-07-19 18:55:00,95.4,71.9,29.70,NW,315,2.7,11.2,47,0.00,,,0.00,WUHU216HW,2013-07-19 23:55:00,
2013-07-19 19:00:00,96.1,70.6,29.70,West,270,6.0,11.2,44,0.00,,,0.00,WUHU216HW,2013-07-20 00:00:00,
2013-07-19 19:05:00,96.1,69.3,29.70,West,270,8.9,10.5,42,0.00,,,0.00,WUHU216HW,2013-07-20 00:05:00,
2013-07-19 19:10:00,95.8,69.6,29.71,West,270,5.6,10.5,43,0.00,,,0.00,WUHU216HW,2013-07-20 00:10:00,
2013-07-19 19:15:00,96.3,68.8,29.71,NW,315,6.5,9.6,41,0.00,,,0.00,WUHU216HW,2013-07-20 00:15:00,
2013-07-19 19:20:00,95.8,68.3,29.71,West,270,4.7,8.5,41,0.00,,,0.00,WUHU216HW,2013-07-20 00:20:00,
2013-07-19 19:25:00,94.5,67.8,29.71,NNW,338,6.5,11.9,42,0.00,,,0.00,WUHU216HW,2013-07-20 00:25:00,
2013-07-19 19:30:00,93.2,66.6,29.72,West,270,8.3,11.9,42,0.00,,,0.00,WUHU216HW,2013-07-20 00:30:00,
2013-07-19 19:35:00,91.8,66.0,29.72,WNW,293,7.2,11.0,43,0.00,,,0.00,WUHU216HW,2013-07-20 00:35:00,
2013-07-19 19:40:00,90.0,65.0,29.72,West,270,7.6,11.0,44,0.00,,,0.00,WUHU216HW,2013-07-20 00:40:00,
2013-07-19 19:45:00,90.0,64.4,29.72,WNW,293,5.1,11.0,43,0.00,,,0.00,WUHU216HW,2013-07-20 00:45:00,
2013-07-19 19:50:00,90.9,65.2,29.72,WNW,293,3.4,8.5,43,0.00,,,0.00,WUHU216HW,2013-07-20 00:50:00,
2013-07-19 19:55:00,90.4,64.7,29.72,NW,315,3.1,7.6,43,0.00,,,0.00,WUHU216HW,2013-07-20 00:55:00,
2013-07-19 20:00:00,88.2,64.1,29.73,West,270,8.5,8.5,45,0.00,,,0.00,WUHU216HW,2013-07-20 01:00:00,
2013-07-19 20:05:00,86.8,63.5,29.72,WNW,293,3.6,9.8,46,0.00,,,0.00,WUHU216HW,2013-07-20 01:05:00,
2013-07-19 20:10:00,85.9,63.9,29.72,WSW,248,1.8,9.8,48,0.00,,,0.00,WUHU216HW,2013-07-20 01:10:00,
2013-07-19 20:15:00,84.6,63.5,29.73,West,270,1.8,5.8,49,0.00,,,0.00,WUHU216HW,2013-07-20 01:15:00,
2013-07-19 20:20:00,83.7,63.2,29.73,WNW,293,2.9,5.8,50,0.00,,,0.00,WUHU216HW,2013-07-20 01:20:00,
2013-07-19 20:25:00,82.8,62.8,29.73,West,270,2.9,5.6,51,0.00,,,0.00,WUHU216HW,2013-07-20 01:25:00,
2013-07-19 20:30:00,82.4,62.5,29.73,West,270,3.8,5.6,51,0.00,,,0.00,WUHU216HW,2013-07-20 01:30:00,
2013-07-19 20:35:00,82.1,62.6,29.73,West,270,3.8,5.4,52,0.00,,,0.00,WUHU216HW,2013-07-20 01:35:00,
2013-07-19 20:40:00,81.7,62.3,29.73,West,270,3.6,5.8,52,0.00,,,0.00,WUHU216HW,2013-07-20 01:40:00,
2013-07-19 20:45:00,81.4,62.6,29.73,NW,315,4.3,5.8,53,0.00,,,0.00,WUHU216HW,2013-07-20 01:45:00,
2013-07-19 20:50:00,80.8,62.6,29.73,WNW,293,1.8,4.7,54,0.00,,,0.00,WUHU216HW,2013-07-20 01:50:00,
2013-07-19 20:55:00,80.1,62.9,29.73,WNW,293,3.4,5.8,56,0.00,,,0.00,WUHU216HW,2013-07-20 01:55:00,
2013-07-19 21:00:00,79.6,62.5,29.73,WNW,293,2.7,5.8,56,0.00,,,0.00,WUHU216HW,2013-07-20 02:00:00,
2013-07-19 21:05:00,79.2,62.1,29.73,WSW,248,2.7,4.9,56,0.00,,,0.00,WUHU216HW,2013-07-20 02:05:00,
2013-07-19 21:10:00,79.2,62.6,29.74,WSW,248,2.5,4.9,57,0.00,,,0.00,WUHU216HW,2013-07-20 02:10:00,
2013-07-19 21:15:00,79.0,62.5,29.74,West,270,3.4,4.9,57,0.00,,,0.00,WUHU216HW,2013-07-20 02:15:00,
2013-07-19 21:20:00,78.8,62.8,29.75,WSW,248,1.3,4.0,58,0.00,,,0.00,WUHU216HW,2013-07-20 02:20:00,
2013-07-19 21:25:00,78.5,63.0,29.75,WSW,248,1.1,2.7,59,0.00,,,0.00,WUHU216HW,2013-07-20 02:25:00,
2013-07-19 21:30:00,78.1,62.6,29.75,NW,315,1.1,2.7,59,0.00,,,0.00,WUHU216HW,2013-07-20 02:30:00,
2013-07-19 21:35:00,78.1,63.2,29.75,West,270,0.9,2.9,60,0.00,,,0.00,WUHU216HW,2013-07-20 02:35:00,
2013-07-19 21:40:00,77.8,62.8,29.76,North,0,0.7,2.9,60,0.00,,,0.00,WUHU216HW,2013-07-20 02:40:00,
2013-07-19 21:45:00,77.6,63.1,29.76,West,270,1.8,3.4,61,0.00,,,0.00,WUHU216HW,2013-07-20 02:45:00,
2013-07-19 21:50:00,77.2,63.2,29.76,NNW,338,1.1,4.0,62,0.00,,,0.00,WUHU216HW,2013-07-20 02:50:00,
2013-07-19 21:55:00,77.0,63.0,29.76,WNW,293,3.4,4.0,62,0.00,,,0.00,WUHU216HW,2013-07-20 02:55:00,
2013-07-19 22:00:00,77.0,63.5,29.77,WNW,293,3.4,4.3,63,0.00,,,0.00,WUHU216HW,2013-07-20 03:00:00,
2013-07-19 22:04:00,76.9,63.3,29.77,West,270,1.1,4.7,63,0.00,,,0.00,WUHU216HW,2013-07-20 03:04:00,
2013-07-19 22:09:00,76.7,63.5,29.77,West,270,1.6,4.7,64,0.00,,,0.00,WUHU216HW,2013-07-20 03:09:00,
2013-07-19 22:14:00,76.7,63.5,29.77,West,270,2.5,4.3,64,0.00,,,0.00,WUHU216HW,2013-07-20 03:14:00,
2013-07-19 22:19:00,76.3,63.2,29.78,WNW,293,2.9,4.3,64,0.00,,,0.00,WUHU216HW,2013-07-20 03:19:00,
2013-07-19 22:24:00,76.1,63.5,29.78,NW,315,2.2,4.0,65,0.00,,,0.00,WUHU216HW,2013-07-20 03:24:00,
2013-07-19 22:29:00,76.0,63.4,29.78,WNW,293,1.3,4.0,65,0.00,,,0.00,WUHU216HW,2013-07-20 03:29:00,
2013-07-19 22:34:00,75.8,63.6,29.78,WNW,293,4.7,4.7,66,0.00,,,0.00,WUHU216HW,2013-07-20 03:34:00,
2013-07-19 22:39:00,75.6,63.5,29.78,WNW,293,2.5,4.7,66,0.00,,,0.00,WUHU216HW,2013-07-20 03:39:00,
2013-07-19 22:44:00,75.6,63.5,29.78,NW,315,3.4,4.7,66,0.00,,,0.00,WUHU216HW,2013-07-20 03:44:00,
2013-07-19 22:49:00,75.4,63.3,29.78,NW,315,3.4,4.7,66,0.00,,,0.00,WUHU216HW,2013-07-20 03:49:00,
2013-07-19 22:54:00,75.2,63.1,29.78,NW,315,2.5,4.7,66,0.00,,,0.00,WUHU216HW,2013-07-20 03:54:00,
2013-07-19 22:59:00,75.1,63.4,29.78,NNW,338,1.1,4.5,67,0.00,,,0.00,WUHU216HW,2013-07-20 03:59:00,
2013-07-19 23:01:00,75.1,63.4,29.78,North,0,2.5,4.5,67,0.00,,,0.00,WUHU216HW,2013-07-20 04:01:00,
2013-07-19 23:06:00,74.7,63.5,29.78,North,0,1.8,4.5,68,0.00,,,0.00,WUHU216HW,2013-07-20 04:06:00,
2013-07-19 23:11:00,74.5,63.7,29.78,NW,315,2.5,4.5,69,0.00,,,0.00,WUHU216HW,2013-07-20 04:11:00,
2013-07-19 23:16:00,74.2,63.4,29.78,NNW,338,5.1,5.4,69,0.00,,,0.00,WUHU216HW,2013-07-20 04:16:00,
2013-07-19 23:21:00,74.2,63.4,29.78,WNW,293,4.0,5.4,69,0.00,,,0.00,WUHU216HW,2013-07-20 04:21:00,
2013-07-19 23:26:00,73.8,63.6,29.78,NNW,338,1.8,6.3,70,0.00,,,0.00,WUHU216HW,2013-07-20 04:26:00,
2013-07-19 23:31:00,73.8,63.6,29.79,NW,315,3.4,6.3,70,0.00,,,0.00,WUHU216HW,2013-07-20 04:31:00,
2013-07-19 23:36:00,73.6,63.4,29.79,NW,315,2.0,5.4,70,0.00,,,0.00,WUHU216HW,2013-07-20 04:36:00,
2013-07-19 23:41:00,73.3,63.4,29.79,NNW,338,3.4,4.9,71,0.00,,,0.00,WUHU216HW,2013-07-20 04:41:00,
2013-07-19 23:46:00,73.1,63.2,29.79,WNW,293,4.3,4.9,71,0.00,,,0.00,WUHU216HW,2013-07-20 04:46:00,
2013-07-19 23:51:00,72.9,63.4,29.79,WNW,293,4.3,5.4,72,0.00,,,0.00,WUHU216HW,2013-07-20 04:51:00,
2013-07-19 23:56:00,72.5,63.0,29.79,NW,315,1.8,5.4,72,0.00,,,0.00,WUHU216HW,2013-07-20 04:56:00,